Location: Alto Pass Reservoir
(37.5801°N, 89.3084°W)
Time: 16:12:30
(UTC+00:00)

Cosmos 2298 Rocket - Pass Details

Date: 09 July 2022
Orbit: 775 x 784 km, 74.0° (Epoch: 18 August)

Event Time Altitude Azimuth Distance (km) Brightness Sun altitude
Rises 09:38:15 0° 323° (NW) 3,277 7.3 -11.5°
Reaches altitude 10° 09:41:24 10° 304° (NW) 2,343 6.4 -11.0°
Maximum altitude 09:44:46 17° 264° (W) 1,886 5.5 -10.5°
Enters shadow 09:47:08 13° 234° (SW) 2,121 5.6 -10.2°
